Printer-friendly version

IAU Minor Planet Center

Minor Planet Center

(40) Harmonia

Orbital Elements

The following orbital elements are taken from MPC 31001:
   (40) Harmonia
Epoch 2007 Apr. 10.0 TT = JDT 2454200.5                 Goffin
M 277.74465              (2000.0)            P               Q
n   0.28864362     Peri.  269.20937     +0.99538994     -0.06099783
a   2.2675737      Node    94.28554     +0.08526149     +0.91618053
e   0.0462906      Incl.    4.25652     -0.04392438     +0.39609659
P   3.41           H    7.0           G   0.15           U   0
From 3339 observations at 81 oppositions, 1856-1996, mean residual 0".52.
An explanation of the orbital elements is available.

These orbital elements are also available in forms suitable for loading into a number of popular planetarium-type software programs.


Ephemeris

The following ephemeris is at intervals of five days. A daily ephemeris covering the same time interval is also available.

Personalized ephemerides for this object (and others) can be generated using the MPES.

Date    TT    R. A. (2000) Decl.     Delta      r     Elong.  Phase     V
 
2007 05 01    20 45.18   -18 43.2    1.983    2.247    91.5    26.6    11.4
2007 05 06    20 51.20   -18 28.7    1.921    2.245    94.9    26.6    11.4
2007 05 11    20 56.79   -18 15.7    1.860    2.242    98.4    26.5    11.3
2007 05 16    21 01.90   -18 04.7    1.799    2.239   102.0    26.2    11.2
2007 05 21    21 06.49   -17 56.1    1.739    2.237   105.7    25.8    11.1
2007 05 26    21 10.54   -17 50.1    1.681    2.234   109.6    25.3    11.0
2007 05 31    21 13.99   -17 47.2    1.624    2.232   113.6    24.6    10.9
2007 06 05    21 16.82   -17 47.5    1.569    2.229   117.7    23.8    10.8
2007 06 10    21 18.97   -17 51.4    1.515    2.227   122.0    22.7    10.7
2007 06 15    21 20.41   -17 59.3    1.465    2.224   126.5    21.5    10.6
2007 06 20    21 21.09   -18 11.2    1.417    2.222   131.2    20.1    10.5
2007 06 25    21 21.00   -18 27.1    1.373    2.219   136.0    18.5    10.4
2007 06 30    21 20.11   -18 47.0    1.332    2.217   141.1    16.8    10.2
2007 07 05    21 18.44   -19 10.6    1.296    2.215   146.3    14.8    10.1
2007 07 10    21 15.98   -19 37.6    1.264    2.212   151.7    12.6    10.0
2007 07 15    21 12.80   -20 07.3    1.238    2.210   157.2    10.3     9.8
2007 07 20    21 08.97   -20 38.9    1.216    2.208   162.8     7.8     9.7
2007 07 25    21 04.61   -21 11.4    1.201    2.206   168.4     5.3     9.6
2007 07 30    20 59.86   -21 43.8    1.192    2.203   173.4     3.0     9.4
2007 08 04    20 54.89   -22 15.1    1.189    2.201   175.2     2.2     9.3
2007 08 09    20 49.88   -22 44.3    1.192    2.199   171.3     4.0     9.5
2007 08 14    20 45.01   -23 10.4    1.201    2.197   165.8     6.5     9.6
2007 08 19    20 40.48   -23 33.0    1.216    2.195   160.2     9.0     9.7
2007 08 24    20 36.46   -23 51.4    1.237    2.193   154.5    11.4     9.9
2007 08 29    20 33.07   -24 05.6    1.263    2.191   149.0    13.7    10.0
2007 09 03    20 30.43   -24 15.4    1.294    2.189   143.6    15.9    10.1
2007 09 08    20 28.59   -24 21.0    1.329    2.188   138.4    17.8    10.2
2007 09 13    20 27.60   -24 22.6    1.369    2.186   133.4    19.6    10.4
2007 09 18    20 27.48   -24 20.3    1.412    2.184   128.5    21.1    10.5
2007 09 23    20 28.23   -24 14.3    1.458    2.182   123.8    22.5    10.6
2007 09 28    20 29.80   -24 05.0    1.507    2.181   119.4    23.6    10.7
2007 10 03    20 32.15   -23 52.5    1.558    2.179   115.0    24.6    10.8
2007 10 08    20 35.24   -23 37.0    1.611    2.178   110.9    25.4    10.9
2007 10 13    20 39.01   -23 18.6    1.666    2.176   106.9    26.0    11.0
2007 10 18    20 43.43   -22 57.3    1.722    2.175   103.0    26.5    11.1
2007 10 23    20 48.42   -22 33.4    1.779    2.174    99.3    26.9    11.1
2007 10 28    20 53.92   -22 06.8    1.837    2.173    95.7    27.1    11.2

Back to Bright Minor Planets

Astronomical Headlines Index

MPC


Valid HTML 4.01!